sat.trackr.live / text

‹ back to catalog

STARLINK-11700 [DTC]

NORAD 64068 · 2025-107E

PAYLOAD ACTIVE UNKNOWN

§ Identity

Operator
Country
US
Launch date
2025-05-21
Launch site
AFETR
Launch vehicle
Mass (kg)
RCS (m²)

Purposes: comms

External: N2YO · Heavens-Above · Gunter

§ Orbital elements

Epoch: 2026-09-20T07:38:23.991072Z

Period
91.67 min
Inclination
42.9994°
Eccentricity
0.0001353
Mean motion
15.70899549 rev/d
Perigee alt
355.4 km
Apogee alt
357.2 km
Semi-major
6,734.5 km
B*
1.3823e-3
RAAN
5.4747°
Arg perigee
274.2700°
Mean anomaly
85.8013°
Rev number
7,790

§ Raw data

STARLINK-11700 [DTC]1 64068U 25107E   26263.31833323  .00181295  00000+0  13823-2 0  99982 64068  42.9994   5.4747 0001353 274.2700  85.8013 15.70899549 77909

JSON: /api/v1/satellites/64068 · /tle

For live sub-satellite position, see the globe view (requires WebGL).

§ Visibility from observer

Set your observer location to see the next 7 days of passes ≥ 10°. The values pass through the URL so the page stays shareable.

No JS? Fill the form by hand. The geolocation button needs JavaScript.